Location: Barcelona
(41.3830°N, 2.1830°E)
Time: 13:08:52
(UTC+01:00)

ISS - Pass Details

Date: 09 December 2019
Orbit: 411 x 421 km, 51.6° (Epoch: 11 December)

Event Time Altitude Azimuth Distance (km) Brightness Sun altitude
Rises 19:12:07 0° 301° (WNW) 2,359 0.8 -20.0°
Reaches altitude 10° 19:14:16 10° 295° (WNW) 1,495 -0.2 -20.4°
Maximum altitude 19:17:29 44° 221° (SW) 584 -2.7 -21.0°
Enters shadow 19:18:20 35° 179° (S) 689 -2.6 -21.2°
